Location: Ajisawe
(8.4333°N, 4.3833°E)
Time: 13:48:14
(UTC+00:00)

Courier 1B Rocket - Pass Details

Date: 29 April 2021
Orbit: 920 x 1202 km, 28.2° (Epoch: 07 May)

Event Time Altitude Azimuth Distance (km) Brightness Sun altitude
Rises 09:40:02 0° 206° (SSW) 3,886 7.9 60.0°
Reaches altitude 10° 09:44:35 10° 181° (S) 2,859 7.5 61.1°
Maximum altitude 09:47:47 13° 153° (SSE) 2,557 7.5 61.9°
Drops below altitude 10° 09:50:53 10° 125° (SE) 2,763 7.8 62.6°
Sets 09:55:06 0° 99° (E) 3,652 8.3 63.6°
